Regional Weather Roundup
Issued by NWS

Home | Current Version | Previous Version | Text Only | Print | Product List | Glossary On
Versions: 1 2 3 4 5 6 7 8 9 10 11 12 13 14 15 16 17 18 19 20 21 22 23 24 25 26 27 28 29 30 31 32 33 34 35 36 37 38 39 40 41 42 43 44 45 46 47 48 49 50
000
ASUS43 KLSX 212207
RWRMO

WEATHER SUMMARY FOR MISSOURI
NATIONAL WEATHER SERVICE SPRINGFIELD MO
500 PM CDT WED OCT 21 2020

NOTE: "FAIR" INDICATES FEW OR NO CLOUDS BELOW 12,000 FEET WITH NO
       SIGNIFICANT WEATHER AND/OR OBSTRUCTIONS TO VISIBILITY.
       CURRENT SKY AND/OR WEATHER CONDITIONS ARE NOT AVAILABLE FOR
       CHILLICOTHE AND FARMINGTON.

MOZ001>031-035>038-043-044-053-054-212300-
...NORTHERN AND WESTERN MISSOURI...

CITY           SKY/WX    TMP DP  RH WIND       PRES   REMARKS
KANSAS CTY INT CLOUDY    48  47  96 E9        30.03F FOG
KANSAS C DTWN  CLOUDY    48  46  93 E8        30.03F FOG
LEE`S SUMMIT   FOG       48  48 100 E7        30.04F VSB 3/4
ST JOSEPH      CLOUDY    48  45  89 E5        30.05F FOG
CHILLICOTHE      N/A     48  47  96 VRB5      30.08F
KIRKSVILLE     CLOUDY    47  47 100 E8        30.09F FOG

$$
MOZ066>068-077>081-088>096-101>105-212300-
...SOUTHWEST MISSOURI...

CITY           SKY/WX    TMP DP  RH WIND       PRES   REMARKS
SPRINGFIELD    SUNNY     78  66  66 SE15G22   30.01F
JOPLIN         MOSUNNY   84  63  49 S17G26    29.98S
BRANSON        MOSUNNY   81  63  54 SE9G16    30.05S

$$
MOZ032>034-039>042-045>050-055>058-069>072-212300-
...CENTRAL MISSOURI...

CITY           SKY/WX    TMP DP  RH WIND       PRES   REMARKS
COLUMBIA       CLOUDY    54  52  93 E8        30.07F FOG
JEFFERSON CITY CLOUDY    57  53  86 E7        30.07F FOG
ROLLA          MOSUNNY   65  60  84 E8        30.08S
SEDALIA        CLOUDY    55  53  93 E8        30.05F
WHITEMAN AFB   CLOUDY    54  54 100 NE7       30.00S FOG
WARRENSBURG    CLOUDY    52  50  93 N6        30.04F FOG
OSAGE BEACH      N/A     70  63  78 SE5       30.05F

$$
MOZ051-052-059>065-212300-
...EAST CENTRAL MISSOURI...

CITY           SKY/WX    TMP DP  RH WIND       PRES   REMARKS
ST LOUIS INTL  CLOUDY    56  52  86 E9        30.12S
SPIRIT OF STL  CLOUDY    56  53  90 E6        30.11S FOG
ST CHARLES     CLOUDY    55  51  86 E9        30.12S

$$
MOZ072>076-082>087-097>100-106>115-212300-
...SOUTH CENTRAL AND SOUTHEAST MISSOURI...

CITY           SKY/WX    TMP DP  RH WIND       PRES   REMARKS
CAPE GIRARDEAU PTSUNNY   79  64  60 S6        30.08S
FARMINGTON     CLOUDY    62  62 100 E3        30.12S FOG
POPLAR BLUFF   SUNNY     81  62  52 S8        30.07S
WEST PLAINS    MOSUNNY   79  64  60 S9G18     30.07F

$$



USA.gov is the U.S. government's official web portal to all federal, state and local government web resources and services.